| time (UTC) | temp F | wind direction | speed knots | gust knots | rain 1hr in | rain 24hr in | rain mn in | humidity % | barometer mb |
| 20260510112806 | 68 | 45 | 8.7 | 10.4 | 0.00 | 0.00 | 0.00 | 57 | 1012.2 |
| 20260510111604 | 69 | 45 | 6.1 | 7.0 | 0.00 | 0.00 | 0.00 | 58 | 1012.2 |
| 20260510110404 | 69 | 37 | 7.0 | 12.2 | 0.00 | 0.00 | 0.00 | 57 | 1012.2 |
| 20260510105142 | 69 | 45 | 8.7 | 12.2 | 0.00 | 0.00 | 0.00 | 57 | 1012.2 |
| 20260510103941 | 69 | 39 | 7.8 | 10.4 | 0.00 | 0.00 | 0.00 | 58 | 1012.2 |
| 20260510102739 | 68 | 45 | 5.2 | 8.7 | 0.00 | 0.00 | 0.00 | 59 | 1012.2 |
| 20260510101559 | 67 | 34 | 7.8 | 9.6 | 0.00 | 0.00 | 0.00 | 59 | 1012.2 |
| 20260510100338 | 67 | 38 | 10.4 | 12.2 | 0.00 | 0.00 | 0.00 | 59 | 1012.2 |
| 20260510095136 | 67 | 45 | 13.9 | 14.8 | 0.00 | 0.00 | 0.00 | 61 | 1012.2 |
| 20260510093936 | 66 | 45 | 13.0 | 18.2 | 0.00 | 0.00 | 0.00 | 62 | 1012.2 |
| 20260510092734 | 66 | 45 | 7.0 | 11.3 | 0.00 | 0.00 | 0.00 | 64 | 1012.2 |
| 20260510091532 | 64 | 23 | 6.1 | 9.6 | 0.00 | 0.00 | 0.00 | 66 | 1012.2 |
| 20260510090352 | 63 | 40 | 10.4 | 14.8 | 0.00 | 0.00 | 0.00 | 66 | 1012.2 |
| 20260510085131 | 64 | 23 | 10.4 | 14.8 | 0.00 | 0.00 | 0.00 | 67 | 1012.2 |
| 20260510083930 | 63 | 23 | 6.1 | 9.6 | 0.00 | 0.00 | 0.00 | 68 | 1012.2 |
| 20260510082728 | 62 | 45 | 9.6 | 12.2 | 0.00 | 0.00 | 0.00 | 69 | 1012.2 |
| 20260510081547 | 62 | 45 | 8.7 | 13.9 | 0.00 | 0.00 | 0.00 | 70 | 1012.2 |
| 20260510080326 | 61 | 41 | 9.6 | 11.3 | 0.00 | 0.00 | 0.00 | 71 | 1012.2 |
| 20260510075125 | 61 | 13 | 8.7 | 12.2 | 0.00 | 0.00 | 0.00 | 73 | 1012.2 |
| 20260510073924 | 60 | 45 | 7.0 | 8.7 | 0.00 | 0.00 | 0.00 | 75 | 1012.2 |
| 20260510072722 | 59 | 39 | 10.4 | 13.9 | 0.00 | 0.00 | 0.00 | 78 | 1012.2 |
| 20260510071541 | 58 | 26 | 6.1 | 9.6 | 0.00 | 0.00 | 0.00 | 81 | 1014.8 |
| 20260510070320 | 57 | 45 | 7.0 | 9.6 | 0.00 | 0.00 | 0.00 | 83 | 1015.6 |
| 20260510065119 | 56 | 33 | 9.6 | 13.0 | 0.00 | 0.00 | 0.00 | 86 | 1015.6 |
| 20260510063918 | 55 | 37 | 7.0 | 14.8 | 0.00 | 0.00 | 0.00 | 89 | 1015.6 |
| 20260510062716 | 54 | 45 | 7.0 | 7.8 | 0.00 | 0.00 | 0.00 | 91 | 1013.9 |
| 20260510061515 | 54 | 23 | 7.0 | 12.2 | 0.00 | 0.00 | 0.00 | 92 | 1015.6 |
| 20260510060414 | 53 | 45 | 6.1 | 8.7 | 0.00 | 0.00 | 0.00 | 93 | 1015.6 |
| 20260510055213 | 52 | 23 | 7.0 | 8.7 | 0.00 | 0.00 | 0.00 | 94 | 1015.6 |
| 20260510054012 | 52 | 54 | 3.5 | 6.1 | 0.00 | 0.00 | 0.00 | 95 | 1015.6 |
| 20260510052831 | 52 | 40 | 7.0 | 7.8 | 0.00 | 0.00 | 0.00 | 95 | 1015.6 |
| 20260510051609 | 51 | 23 | 3.5 | 6.1 | 0.00 | 0.00 | 0.00 | 95 | 1015.6 |
| 20260510050448 | 51 | 23 | 3.5 | 7.0 | 0.00 | 0.00 | 0.00 | 95 | 1015.6 |
| 20260510045207 | 51 | 41 | 3.5 | 5.2 | 0.00 | 0.00 | 0.00 | 95 | 1015.6 |
| 20260510044006 | 51 | 27 | 3.5 | 7.0 | 0.00 | 0.00 | 0.00 | 95 | 1015.6 |
| 20260510042805 | 51 | 23 | 4.3 | 7.0 | 0.00 | 0.00 | 0.00 | 95 | 1015.6 |
| 20260510041604 | 52 | 33 | 1.7 | 3.5 | 0.00 | 0.00 | 0.00 | 95 | 1015.6 |
| 20260510040402 | 52 | 14 | 2.6 | 7.8 | 0.00 | 0.00 | 0.00 | 94 | 1014.8 |
| 20260510035201 | 52 | 26 | 2.6 | 5.2 | 0.00 | 0.00 | 0.00 | 94 | 1015.6 |
| 20260510034040 | 52 | 23 | 3.5 | 4.3 | 0.00 | 0.00 | 0.00 | 94 | 1015.6 |
| 20260510032759 | 52 | 38 | 1.7 | 4.3 | 0.00 | 0.00 | 0.00 | 93 | 1015.6 |
| 20260510031558 | 52 | 41 | 3.5 | 5.2 | 0.00 | 0.00 | 0.00 | 93 | 1012.2 |
| 20260510030357 | 52 | 52 | 2.6 | 4.3 | 0.00 | 0.00 | 0.00 | 92 | 1015.6 |
| 20260510025155 | 53 | 33 | 1.7 | 3.5 | 0.00 | 0.00 | 0.00 | 92 | 1015.6 |
| 20260510023955 | 53 | 27 | 3.5 | 7.0 | 0.00 | 0.00 | 0.00 | 91 | 1015.6 |
| 20260510022754 | 52 | 13 | 2.6 | 6.1 | 0.00 | 0.00 | 0.00 | 91 | 1015.6 |
| 20260510021553 | 52 | 23 | 3.5 | 4.3 | 0.00 | 0.00 | 0.00 | 90 | 1015.6 |
| 20260510020352 | 53 | 30 | 3.5 | 6.1 | 0.00 | 0.00 | 0.00 | 89 | 1015.6 |
| 20260510015151 | 53 | 3 | 3.5 | 6.1 | 0.00 | 0.00 | 0.00 | 88 | 1015.6 |
| 20260510013949 | 53 | 23 | 4.3 | 6.1 | 0.00 | 0.00 | 0.00 | 87 | 1015.6 |
| 20260510012749 | 53 | 23 | 2.6 | 2.6 | 0.00 | 0.00 | 0.00 | 87 | 1015.6 |
| 20260510011547 | 53 | 40 | 1.7 | 2.6 | 0.00 | 0.00 | 0.00 | 86 | 1015.6 |
| 20260510010407 | 53 | 30 | 0.9 | 2.6 | 0.00 | 0.00 | 0.00 | 85 | 1015.6 |
| 20260510005145 | 53 | 19 | 2.6 | 4.3 | 0.00 | 0.00 | 0.00 | 84 | 1015.6 |
| 20260510004005 | 54 | 34 | 1.7 | 4.3 | 0.00 | 0.00 | 0.00 | 84 | 1015.6 |
| 20260510002743 | 53 | 23 | 2.6 | 5.2 | 0.00 | 0.00 | 0.00 | 82 | 1015.6 |
| 20260510001542 | 54 | 14 | 2.6 | 5.2 | 0.00 | 0.00 | 0.00 | 81 | 1015.6 |
| 20260510000342 | 54 | 16 | 1.7 | 3.5 | 0.00 | 0.00 | 0.00 | 80 | 1014.8 |
| 20260509235140 | 54 | 15 | 2.6 | 5.2 | 0.00 | 0.00 | 0.00 | 79 | 1015.6 |
| 20260509233939 | 54 | 23 | 1.7 | 2.6 | 0.00 | 0.00 | 0.00 | 78 | 1015.6 |
| 20260509232819 | 55 | 18 | 2.6 | 5.2 | 0.00 | 0.00 | 0.00 | 77 | 1015.6 |
| 20260509231537 | 55 | 34 | 0.9 | 2.6 | 0.00 | 0.00 | 0.00 | 76 | 1015.6 |
| 20260509230357 | 55 | 21 | 1.7 | 3.5 | 0.00 | 0.00 | 0.00 | 75 | 1015.6 |
| 20260509225135 | 56 | 40 | 2.6 | 3.5 | 0.00 | 0.00 | 0.00 | 75 | 1015.6 |
| 20260509223954 | 56 | 40 | 2.6 | 4.3 | 0.00 | 0.00 | 0.00 | 74 | 1015.6 |
| 20260509222733 | 56 | 45 | 2.6 | 3.5 | 0.00 | 0.00 | 0.00 | 74 | 1015.6 |
| 20260509221532 | 57 | 48 | 1.7 | 2.6 | 0.00 | 0.00 | 0.00 | 74 | 1015.6 |
| 20260509220330 | 57 | 34 | 0.9 | 2.6 | 0.00 | 0.00 | 0.00 | 74 | 1015.6 |
| 20260509215725 | 57 | 45 | 0.9 | 2.6 | 0.00 | 0.00 | 0.00 | 73 | 1015.6 |
| 20260509214523 | 58 | 23 | 2.6 | 5.2 | 0.00 | 0.00 | 0.00 | 73 | 1015.6 |
| 20260509213322 | 58 | 23 | 4.3 | 5.2 | 0.00 | 0.00 | 0.00 | 72 | 1015.6 |
| 20260509212121 | 58 | 34 | 3.5 | 7.0 | 0.00 | 0.00 | 0.00 | 71 | 1015.6 |
| 20260509210920 | 59 | 23 | 2.6 | 4.3 | 0.00 | 0.00 | 0.00 | 70 | 1015.6 |
| 20260509205738 | 59 | 45 | 1.7 | 2.6 | 0.00 | 0.00 | 0.00 | 70 | 1015.6 |
| 20260509204518 | 59 | 41 | 3.5 | 6.1 | 0.00 | 0.00 | 0.00 | 68 | 1015.6 |
| 20260509203316 | 60 | 42 | 1.7 | 4.3 | 0.00 | 0.00 | 0.00 | 67 | 1015.6 |
| 20260509202115 | 61 | 45 | 1.7 | 2.6 | 0.00 | 0.00 | 0.00 | 66 | 1015.6 |
| 20260509201014 | 61 | 44 | 4.3 | 7.0 | 0.00 | 0.00 | 0.00 | 65 | 1015.6 |
| 20260509195833 | 62 | 29 | 4.3 | 6.1 | 0.00 | 0.00 | 0.00 | 64 | 1015.6 |
| 20260509194612 | 62 | 50 | 3.5 | 5.2 | 0.00 | 0.00 | 0.00 | 63 | 1015.6 |
| 20260509193431 | 63 | 45 | 3.5 | 6.1 | 0.00 | 0.00 | 0.00 | 62 | 1015.6 |
| 20260509192210 | 64 | 26 | 5.2 | 6.1 | 0.00 | 0.00 | 0.00 | 61 | 1015.6 |
| 20260509191009 | 64 | 23 | 4.3 | 6.1 | 0.00 | 0.00 | 0.00 | 60 | 1015.6 |
| 20260509185808 | 65 | 27 | 4.3 | 6.1 | 0.00 | 0.00 | 0.00 | 59 | 1015.6 |
| 20260509184607 | 65 | 38 | 5.2 | 7.8 | 0.00 | 0.00 | 0.00 | 59 | 1015.6 |
| 20260509183406 | 66 | 40 | 5.2 | 7.8 | 0.00 | 0.00 | 0.00 | 58 | 1015.6 |
| 20260509182205 | 67 | 35 | 3.5 | 7.8 | 0.00 | 0.00 | 0.00 | 57 | 1015.6 |
| 20260509181003 | 67 | 40 | 4.3 | 5.2 | 0.00 | 0.00 | 0.00 | 56 | 1015.6 |
| 20260509175802 | 68 | 39 | 4.3 | 6.1 | 0.00 | 0.00 | 0.00 | 56 | 1015.6 |
| 20260509174601 | 68 | 45 | 6.1 | 6.1 | 0.00 | 0.00 | 0.00 | 55 | 1015.6 |
| 20260509173400 | 68 | 18 | 6.1 | 7.8 | 0.00 | 0.00 | 0.00 | 55 | 1015.6 |
| 20260509172217 | 68 | 30 | 3.5 | 5.2 | 0.00 | 0.00 | 0.00 | 54 | 1015.6 |
| 20260509170957 | 69 | 39 | 4.3 | 5.2 | 0.00 | 0.00 | 0.00 | 54 | 1015.6 |
| 20260509165756 | 69 | 29 | 5.2 | 7.0 | 0.00 | 0.00 | 0.00 | 53 | 1015.6 |
| 20260509164554 | 69 | 36 | 6.1 | 7.8 | 0.00 | 0.00 | 0.00 | 52 | 1015.6 |
| 20260509163353 | 70 | 45 | 5.2 | 6.1 | 0.00 | 0.00 | 0.00 | 53 | 1015.6 |
| 20260509162152 | 70 | 53 | 2.6 | 5.2 | 0.00 | 0.00 | 0.00 | 53 | 1015.6 |
| 20260509161010 | 70 | 113 | 4.3 | 5.2 | 0.00 | 0.00 | 0.00 | 52 | 1015.6 |
| 20260509155749 | 70 | 65 | 5.2 | 7.0 | 0.00 | 0.00 | 0.00 | 52 | 1015.6 |
| 20260509154547 | 71 | 58 | 4.3 | 7.0 | 0.00 | 0.00 | 0.00 | 51 | 1015.6 |
| 20260509153346 | 71 | 23 | 7.0 | 7.8 | 0.00 | 0.00 | 0.00 | 50 | 1015.6 |
| 20260509152144 | 72 | 34 | 5.2 | 8.7 | 0.00 | 0.00 | 0.00 | 49 | 1015.6 |
| 20260509150944 | 75 | 38 | 7.0 | 9.6 | 0.00 | 0.00 | 0.00 | 48 | 1015.6 |
| 20260509145742 | 75 | 286 | 1.7 | 3.5 | 0.00 | 0.00 | 0.00 | 50 | 1015.6 |
| 20260509144540 | 71 | 65 | 2.6 | 4.3 | 0.00 | 0.00 | 0.00 | 51 | 1015.6 |
| 20260509143359 | 72 | 96 | 5.2 | 5.2 | 0.00 | 0.00 | 0.00 | 49 | 1015.6 |
| 20260509142137 | 74 | 45 | 3.5 | 5.2 | 0.00 | 0.00 | 0.00 | 48 | 1015.6 |
| 20260509140956 | 75 | 57 | 7.0 | 11.3 | 0.00 | 0.00 | 0.00 | 48 | 1015.6 |
| 20260509135735 | 74 | 353 | 1.7 | 4.3 | 0.00 | 0.00 | 0.00 | 49 | 1015.6 |
| 20260509134534 | 73 | 59 | 5.2 | 7.0 | 0.00 | 0.00 | 0.00 | 50 | 1015.6 |
| 20260509133333 | 73 | 349 | 6.1 | 7.8 | 0.00 | 0.00 | 0.00 | 51 | 1015.6 |
| 20260509132132 | 72 | 51 | 3.5 | 6.1 | 0.00 | 0.00 | 0.00 | 52 | 1015.6 |
| 20260509130930 | 73 | 29 | 4.3 | 5.2 | 0.00 | 0.00 | 0.00 | 52 | 1015.6 |
| 20260509125728 | 73 | 45 | 7.0 | 9.6 | 0.00 | 0.00 | 0.00 | 50 | 1015.6 |
| 20260509124527 | 73 | 70 | 4.3 | 6.1 | 0.00 | 0.00 | 0.00 | 50 | 1015.6 |
| 20260509123326 | 74 | 61 | 5.2 | 7.0 | 0.00 | 0.00 | 0.00 | 49 | 1015.6 |
| 20260509122125 | 76 | 22 | 7.0 | 8.7 | 0.00 | 0.00 | 0.00 | 49 | 1015.6 |
| 20260509120923 | 74 | 27 | 4.3 | 5.2 | 0.00 | 0.00 | 0.00 | 51 | 1015.6 |
| 20260509115722 | 73 | 71 | 5.2 | 7.8 | 0.00 | 0.00 | 0.00 | 51 | 1015.6 |
| 20260509114521 | 72 | 68 | 6.1 | 9.6 | 0.00 | 0.00 | 0.00 | 52 | 1015.6 |